Saint Louis, Missouri, United States (63101)
Lat: 38.63N, Lon: 90.2W
Wx Zone: MOZ064
Local Info
Past Weather Observations for Today

NOTE: This archive is for the closest National Weather Service station to Saint Louis. Information may differ from the station used for current weather conditions.

Click here for Long-term Archive

Time Weather Temperature Dewpoint Humidity Pressure Winds Precip Visibility
21:53
Overcast
79°F / 26°C 70°F / 21°C 74% 29.89 in
(1012 mb)
NNW 4.6 mph
(NNW 7 kph)
- 10SM
21:03
Overcast
79°F / 26°C 70°F / 21°C 74% 29.86 in
(1011 mb)
SE 9.2 mph
(SE 15 kph)
- 10SM
20:53
Overcast
Thunder Storms
79°F / 26°C 70°F / 21°C 74% 29.89 in
(1012 mb)
SE 6.9 mph
(SE 11 kph)
- 10SM
19:53
Overcast
Thunder Storms
79°F / 26°C 70°F / 21°C 74% 29.86 in
(1011 mb)
SE 9.2 mph
(SE 15 kph)
- 10SM
18:53
Overcast
Thunder Storms
79°F / 26°C 70°F / 21°C 74% 29.89 in
(1012 mb)
SSE 4.6 mph
(SSE 7 kph)
- 10SM
18:26
Overcast
Thunder Storms
81°F / 27°C 68°F / 20°C 66% 29.89 in
(1012 mb)
SSE 3.5 mph
(SSE 6 kph)
- 10SM
17:53
Overcast
82°F / 28°C 68°F / 20°C 62% 29.89 in
(1012 mb)
S 4.6 mph
(S 7 kph)
- 10SM
16:53
Clear
84°F / 29°C 66°F / 19°C 55% 29.92 in
(1013 mb)
Variable 3.5 mph
(Variable 6 kph)
- 10SM
15:53
Clear
84°F / 29°C 66°F / 19°C 55% 29.92 in
(1013 mb)
Variable 3.5 mph
(Variable 6 kph)
- 10SM
14:53
Clear
84°F / 29°C 66°F / 19°C 55% 29.89 in
(1012 mb)
SSE 6.9 mph
(SSE 11 kph)
- 10SM
13:53
Clear
84°F / 29°C 64°F / 18°C 51% 29.89 in
(1012 mb)
SSW 4.6 mph
(SSW 7 kph)
- 10SM
12:53
Clear
84°F / 29°C 64°F / 18°C 51% 29.92 in
(1013 mb)
NW 6.9 mph
(NW 11 kph)
- 10SM
11:53
Clear
81°F / 27°C 64°F / 18°C 58% 29.92 in
(1013 mb)
Variable 5.8 mph
(Variable 9 kph)
- 10SM
10:53
Clear
79°F / 26°C 66°F / 19°C 65% 29.89 in
(1012 mb)
SSW 8.1 mph
(SSW 13 kph)
- 10SM
09:53
Clear
79°F / 26°C 64°F / 18°C 61% 29.86 in
(1011 mb)
SW 8.1 mph
(SW 13 kph)
- 10SM
08:53
Partly Cloudy
73°F / 23°C 66°F / 19°C 78% 29.8 in
(1009 mb)
SSE 10.4 mph
(SSE 17 kph)
- 10SM
07:53
Partly Cloudy
73°F / 23°C 66°F / 19°C 78% 29.89 in
(1012 mb)
S 5.8 mph
(S 9 kph)
0.01 in
(0.25 mm)
10SM
06:53
Overcast
Light Rain
77°F / 25°C 72°F / 22°C 83% 29.92 in
(1013 mb)
SSW 8.1 mph
(SSW 13 kph)
0.00 in
(0.00 mm)
7SM
06:45
Overcast
77°F / 25°C 72°F / 22°C 83% 29.92 in
(1013 mb)
Variable 6.9 mph
(Variable 11 kph)
- 10SM
05:53
Partly Cloudy
77°F / 25°C 72°F / 22°C 83% 29.92 in
(1013 mb)
SW 10.4 mph
(SW 17 kph)
- 10SM
05:29
Partly Cloudy
75°F / 24°C 72°F / 22°C 89% 29.92 in
(1013 mb)
SSE 5.8 mph
(SSE 9 kph)
- 10SM
05:02
Mostly Cloudy
75°F / 24°C 72°F / 22°C 89% 29.89 in
(1012 mb)
S 6.9 mph
(S 11 kph)
- 10SM
04:53
Mostly Cloudy
75°F / 24°C 72°F / 22°C 89% 29.89 in
(1012 mb)
Variable 4.6 mph
(Variable 7 kph)
- 10SM
03:53
Mostly Cloudy
75°F / 24°C 72°F / 22°C 89% 29.89 in
(1012 mb)
S 5.8 mph
(S 9 kph)
- 10SM
02:53
Clear
75°F / 24°C 72°F / 22°C 89% 29.86 in
(1011 mb)
S 4.6 mph
(S 7 kph)
- 9SM
01:53
Clear
77°F / 25°C 72°F / 22°C 83% 29.89 in
(1012 mb)
SSE 5.8 mph
(SSE 9 kph)
- 9SM
00:53
Clear
75°F / 24°C 72°F / 22°C 89% 29.89 in
(1012 mb)
Variable 3.5 mph
(Variable 6 kph)
- 9SM
Time Weather Temperature Dewpoint Humidity Pressure Winds Precip Visibility


Weather for websites

WeatherForYou.com, LLC is not responsible for any damages or problems caused by this service. Current weather conditions are obtained from the closest station including government and personal stations which may have varying degrees of accuracy. Weather forecasts are derived from the NOAA NDFD. Like all things, this site belongs to Jesus Christ... He just trusts me to maintain it. If you have any questions or comments email webmaster@weatherforyou.com

Copyright © 2014, WeatherForYou.com LLC. All rights reserved.